Regional Weather Roundup
Issued by NWS

Home | Current Version | Previous Version | Graphics & Text | Print | Product List | Glossary On
Versions: 1 2 3 4 5 6 7 8 9 10 11 12 13 14 15 16 17 18 19 20 21 22 23 24 25 26 27 28 29 30 31 32 33 34 35 36 37 38 39 40 41 42 43 44 45 46 47 48 49 50
579
ASUS45 KCYS 230110
RWRWY

WYOMING REGIONAL WEATHER ROUNDUP
NATIONAL WEATHER SERVICE CHEYENNE WY
700 PM MDT FRI SEP 22 2017

NOTE:  "FAIR" INDICATES FEW OR NO CLOUDS BELOW 12,000 FEET
WITH NO SIGNIFICANT WEATHER AND/OR OBSTRUCTIONS TO VISIBILITY.

WYZ001-230200-
YELLOWSTONE NATIONAL PARK

CITY           SKY/WX    TMP DP  RH WIND       PRES   REMARKS
LK YELLOWSTONE NOT AVBL
W YELLOWSTONE  NOT AVBL

$$
WYZ002>013-054>058-071-098>099-230200-
NORTHERN WYOMING

CITY           SKY/WX    TMP DP  RH WIND       PRES   REMARKS
JACKSON        CLOUDY    41  34  76 NE8       29.93R
CODY           LGT RAIN  38  36  92 N10       29.98F WCI  31
GREYBULL       CLOUDY    45  41  86 NW15      29.95R
WORLAND        LGT RAIN  45  41  86 NW6       29.96R
SHERIDAN       CLOUDY    45  41  86 CALM      30.01R
BUFFALO        CLOUDY    42  38  85 N3        30.01S FOG
GILLETTE       FAIR      47  36  65 N13       29.97R
HULETT         RAIN      43  39  87 NE6       30.01R
NEWCASTLE      FAIR      50  37  62 NW12      29.95R

$$
WYZ014>020-022>026-101>103-230200-
CENTRAL WYOMING

CITY           SKY/WX    TMP DP  RH WIND       PRES   REMARKS
BIG PINEY      CLOUDY    39  34  82 SW3       29.95R
PINEDALE       LGT RAIN  37  36  93 S7        29.98R WCI  32
DUBOIS         RAIN      34  32  93 CALM      29.95R
LANDER           N/A    N/A N/A N/A MISG      29.92R
RIVERTON       RAIN      42  41  96 N9        29.93R FOG
CASPER         FAIR      48  45  89 E9        29.92R
DOUGLAS        RAIN      45  42  89 E8        29.97F FOG

$$
WYZ021-027>030-104>119-230200-
SOUTHERN WYOMING

CITY           SKY/WX    TMP DP  RH WIND       PRES   REMARKS
EVANSTON       CLOUDY    37  35  92 S8        29.97R WCI  31
KEMMERER       FLURRIES  36  32  87 S5        29.97R WCI  32
FORT BRIDGER   LGT SNOW  34  34 100 W9        30.00R VSB 3/4 WCI  27
ROCK SPRINGS   CLOUDY    43  40  89 NW9       29.93R
DIXON          FAIR      60  32  35 SE7       29.87F
RAWLINS        FAIR      49  42  77 E12       29.90S
SARATOGA       FAIR      50  43  76 E5        29.92F
LARAMIE        LGT RAIN  47  42  83 NW3       29.98R
CHEYENNE       MOCLDY    56  35  45 N10       29.93R
TORRINGTON     FAIR      62  35  36 N10       29.85R
PINE BLUFFS    FAIR      59  37  44 N10G18    29.87F

$$




USA.gov is the U.S. government's official web portal to all federal, state and local government web resources and services.